Regional Weather Roundup
Issued by NWS

Current Version | Previous Version | Text Only | Print | Product List | Glossary On
Versions: 1 2 3 4 5 6 7 8 9 10 11 12 13 14 15 16 17 18 19 20 21 22 23 24 25 26 27 28 29 30 31 32 33 34 35 36 37 38 39 40 41 42 43 44 45 46 47 48
000
ASUS42 KTBW 291017
RWRFL
FLORIDA REGIONAL WEATHER ROUNDUP
NATIONAL WEATHER SERVICE TAMPA BAY RUSKIN FL
600 AM EDT WED JUN 29 2016

NOTE: "FAIR" INDICATES FEW OR NO CLOUDS BELOW 12,000 FEET WITH NO
SIGNIFICANT WEATHER AND/OR OBSTRUCTIONS TO VISIBILITY.

FLZ001>010-012>015-112-114-115-291100-
PANHANDLE FLORIDA

CITY           SKY/WX    TMP DP  RH WIND       PRES   REMARKS
PENSACOLA      PTCLDY    75  72  90 CALM      29.92S
CRESTVIEW      CLEAR     72  70  93 CALM      29.95R
DUKE FIELD     FAIR      72  70  92 NW1       29.92R
VALPARAISO     PTCLDY    74  70  87 NW2       29.93R
MARY ESTHER    PTCLDY    73  71  92 N2        29.92
PANAMA CITY    FAIR      73  71  93 CALM      29.92R
TYNDALL AFB    PTCLDY    82  76  80 SW7       29.93S
APALACHICOLA   CLEAR     81  77  88 SW6       29.93S

STATION/POSITION SKY/WX   TEMP    WIND        PRES    WAVE   SWELL
                          AIR SEA DIR/SP/G            HT/PER HT/PER
                          (F)     (DEG/KT/KT) (MB)    (FT/S) (FT/S)
30.1N   87.6W              82 87              1013.3    1/ 7
29.2N   88.2W              83 87  220/  6/  8 1012.9R
28.8N   86.0W              82 84  240/  8/ 10 1014.2    1/ 3
PANAMA CITY BEAC           81 83  350/  4/  5 1013.5F
TOWER C                    82     230/  8/  8 1014.6R
28.5N   84.5W              83 85  230/  6/  8 1014.4    1/ 3

$$
FLZ011-016>038-118-127-128-134-139-239-291100-
NORTH FLORIDA

CITY           SKY/WX    TMP DP  RH WIND       PRES   REMARKS
MARIANNA       CLEAR     75  74  96 CALM      29.92S
TALLAHASSEE    PTCLDY    76  73  91 S3        29.94S
PERRY          CLEAR     75  74  96 CALM      29.96S FOG
LIVE OAK         N/A     77  77 100 CALM      29.97S
CROSS CITY       N/A     74  71  91 CALM      29.95F
LAKE CITY      FAIR      73  73 100 CALM      29.95F
GAINESVILLE    CLEAR     74  73  97 CALM      29.97S
WILLISTON      FAIR      75  75 100 CALM      29.98
MAYPORT NAS    MOCLDY    76  73  91 S7        29.92F
JACKSONVILLE   PTCLDY    73  72  96 SW3       29.93S
JAX CECIL      PTCLDY    75  75 100 CALM      29.95S
FERNANDINA BEA FAIR      79  75  89 SW10      29.91F
ST AUGUSTINE   PTCLDY    76  73  91 SW5       29.96F
PALM COAST     PTCLDY    75  73  94 SW5       29.96F

STATION/POSITION SKY/WX   TEMP    WIND        PRES    WAVE   SWELL
                          AIR SEA DIR/SP/G            HT/PER HT/PER
                          (F)     (DEG/KT/KT) (MB)    (FT/S) (FT/S)
SHELL POINT                81     250/  7/  9 1012.8
KEATON BEACH               83     240/  9/ 10 1013.9S
CEDAR KEY                  83     280/  4/  5 1014.9F
FERNANDINA                 79 85  200/  3/  5 1013.3F
30.7N   81.3W                 83                N/A     2/ 4
MAYPORT                    79 84  230/  5/  6 1014.1F
31.4N   80.9W              80 82  230/ 10/ 10 1013.0    2/ 9   2/ 9
ST AUGUSTINE               77 84  230/  4/  6 1015.0F

$$
FLZ040-043>046-052-053-057-058-063-144-291100-
INTERIOR CENTRAL FLORIDA

CITY           SKY/WX    TMP DP  RH WIND       PRES   REMARKS
OCALA          MOCLDY    75  72  88 CALM      29.98S
THE VILLAGES     N/A    N/A N/A N/A CALM      29.88F
LEESBURG       CLEAR     76  70  82 SE6       29.98F
SANFORD        PTCLDY    73  69  87 SW6       29.96F
ORLANDO EXEC   MOCLDY    75  69  81 CALM      29.97F
ORLANDO INTL   MOCLDY    73  71  93 S3        29.97F
KISSIMMEE      PTCLDY    74  73  97 CALM      29.99S
WINTER HAVEN   PTCLDY    77  73  87 CALM      29.99F
LAKELAND       CLEAR     75  73  94 CALM      29.99S
BARTOW         FAIR      73 N/A N/A CALM      29.99S
OKEECHOBEE     MOCLDY    72  72 100 CALM      29.99F

$$
FLZ041-047-054-059-064-141-147-291100-
EAST CENTRAL FLORIDA

CITY           SKY/WX    TMP DP  RH WIND       PRES   REMARKS
DAYTONA BEACH  MOCLDY    74  71  91 SW5       29.97S
DELAND           N/A     75  68  78 CALM      29.98F
JFK SPACE CTR  DRIZZLE   75  72  88 CALM      29.95S
CAPE CANAVERAL MOCLDY    76  74  91 NW2       29.95F
PATRICK AFB    CLOUDY    77  72  84 SE2       29.96F
MELBOURNE      CLOUDY    76  73  91 S5        29.97F
VERO BEACH     PTCLDY    74  72  93 CALM      29.98F
FT PIERCE      PTCLDY    74  73  97 CALM      29.98F
STUART         CLEAR     79  73  83 SW3       30.00S

STATION/POSITION SKY/WX   TEMP    WIND        PRES    WAVE   SWELL
                          AIR SEA DIR/SP/G            HT/PER HT/PER
                          (F)     (DEG/KT/KT) (MB)    (FT/S) (FT/S)
28.5N   80.2W              80 83  270/  8/  8 1015.2F
28.9N   78.5W              83 84  210/ 14/ 16 1015.2R
TRIDENT PIER               77 86  270/  5/  9 1015.1F
28.4N   80.5W                 85                N/A     2/ 9
27.5N   80.2W                 84                N/A     1/ 8

$$
FLZ050-056-061-142-242-148-248-149-249-151-251-155-255-
160-260-291100-
WEST CENTRAL FLORIDA

CITY           SKY/WX    TMP DP  RH WIND       PRES   REMARKS
CRYSTAL RIVER  FAIR      73  72  94 CALM      29.97F
INVERNESS      FAIR      72  72 100 CALM      29.98S
BROOKSVILLE    PTCLDY    72  71  97 SE5       29.98F FOG
ZEPHYRHILLS    FOG       58  58 100 CALM      29.98F VSB 1
CLEARWATER AIR FAIR      77  73  88 CALM      29.97S
ST PETE CLEARW CLEAR     77  72  84 SE3       29.97F
TAMPA INTL     PTCLDY    81  75  82 SE3       29.98S
TAMPA EXEC       N/A     73  72  94 CALM      29.98F
PLANT CITY     CLEAR     75  75 100 SE5       30.00S
MACDILL AFB    PTCLDY    77  77 100 SE7       29.97S
PETER O KNIGHT CLEAR     81  77  89 SE5       29.98S
ST PETERSBURG  PTCLDY    81  74  79 S13       29.96S
SARASOTA       PTCLDY    79  74  84 SE7       29.97R
VENICE         NOT AVBL

STATION/POSITION SKY/WX   TEMP    WIND        PRES    WAVE   SWELL
                          AIR SEA DIR/SP/G            HT/PER HT/PER
                          (F)     (DEG/KT/KT) (MB)    (FT/S) (FT/S)
27.3N   84.2W                 86                N/A     0
CLEARWATER BEACH           83 89  230/  4/  4 1015.0R
MIDDLE TAMPA BAY                  150/  8/  9 1015.3F
VENICE                     79 86  110/  5/  5 1015.1R

$$
FLZ066-069-070-075>078-162-262-165-265-291100-
SOUTHWEST FLORIDA AND KEYS

CITY           SKY/WX    TMP DP  RH WIND       PRES   REMARKS
PUNTA GORDA    CLOUDY    76  73  91 CALM      30.00F
FT MYERS       CLOUDY    75  73  93 CALM      29.98S
SOUTHWEST INTL MOCLDY    77  73  87 CALM      29.99S
NAPLES         CLEAR     77  72  84 N3        29.98F
MARCO ISLAND   CLEAR     75  70  83 CALM      29.99S
MARATHON       CLOUDY    76  75  97 E5        29.98F
KEY WEST INTL  PTCLDY    82  75  79 S5        29.98S

STATION/POSITION SKY/WX   TEMP    WIND        PRES    WAVE   SWELL
                          AIR SEA DIR/SP/G            HT/PER HT/PER
                          (F)     (DEG/KT/KT) (MB)    (FT/S) (FT/S)
NAPLES                        88              1015.4R
26.0N   85.6W              83 86  190/  6/  8 1015.0F   1
DRY TORTUGAS               83     130/  2/  2 1015.4R
SAND KEY                   82     170/  6/  7 1015.5F
LONG KEY                   82 88  210/ 10/ 12 1015.8R

$$
FLZ067-068-071>074-168-172>174-291100-
SOUTHEAST FLORIDA

CITY           SKY/WX    TMP DP  RH WIND       PRES   REMARKS
W PALM BEACH   PTCLDY    77  73  87 CALM      30.00S
FT LAUDER-EXEC PTCLDY    77  73  87 N3        29.99S
FT LAUDERDALE  PTCLDY    79  74  84 N3        29.99S
POMPANO BEACH  CLEAR     79  73  82 CALM      29.99S
PEMBROKE PINES CLEAR     78  74  87 CALM      30.00F
OPA LOCKA      PTCLDY    77  75  93 S6        30.00S
MIAMI          PTCLDY    80  74  81 CALM      29.99S
WEST KENDALL   CLEAR     77  74  90 CALM      29.99S
HOMESTEAD      CLEAR     76  73  88 NW2       29.99S

STATION/POSITION SKY/WX   TEMP    WIND        PRES    WAVE   SWELL
                          AIR SEA DIR/SP/G            HT/PER HT/PER
                          (F)     (DEG/KT/KT) (MB)    (FT/S) (FT/S)
PORT EVERGLADES            80     330/  3/  4 1015.6S
VIRGINIA KEY               83 88  180/  3/  4 1016.0R
LAKE WORTH                        260/  2/  5   N/A
FOWEY ROCKS                83 84  150/  3/  4 1016.2F
SETTLEMENT POINT           82     190/ 11/ 13 1016.6R

$$




USA.gov is the U.S. government's official web portal to all federal, state and local government web resources and services.